Regional Weather Roundup
Issued by NWS

Home | Current Version | Previous Version | Text Only | Print | Product List | Glossary On
Versions: 1 2 3 4 5 6 7 8 9 10 11 12 13 14 15 16 17 18 19 20 21 22 23 24 25 26 27 28 29 30 31 32 33 34 35 36 37 38 39 40 41 42 43 44 45 46 47 48 49 50
000
ASUS42 KFFC 222010
RWRGA
WEATHER ROUNDUP FOR GEORGIA
NATIONAL WEATHER SERVICE PEACHTREE CITY GA
300 PM EST MON JAN 22 2018

NOTE: "FAIR" INDICATES FEW OR NO CLOUDS BELOW 12,000 FEET WITH NO
SIGNIFICANT WEATHER AND/OR OBSTRUCTIONS TO VISIBILITY.

* = USE WITH CAUTION. THE STATIONS MARKED WITH AN ASTERISK MAY NOT
REPORT WEATHER SUCH AS PRECIPITATION, FOG, OR THUNDER AND ARE NOT
QUALITY CONTROLLED BY NWS.

THE REMARK "TC" DENOTES TEMPERATURE READING IN DEGREES CELSIUS.

GAZ001>058-222100-
NORTH GEORGIA

CITY           SKY/WX    TMP DP  RH WIND       PRES   REMARKS
ATLANTA        CLOUDY    59  58  96 S8        29.99F FOG
ATHENS         CLOUDY    62  55  77 CALM      30.02F
CHAMBLEE       CLOUDY    56  54  93 SE3       29.99F FOG
PEACHTREE CITY CLOUDY    61  57  87 SE5       29.99F
ROME           LGT RAIN  58  56  93 SE6       29.92F
WEST ATLANTA   CLOUDY    61  58  90 S9        29.98F
GAINESVILLE    LGT RAIN  51  51 100 E6        30.03S FOG
CARTERSVILLE   LGT RAIN  58  57  97 E5        29.96F


CITY           SKY/WX    TMP DP  RH WIND       PRES   REMARKS
LAWRENCEVILLE* LGT RAIN  56  54  93 E3        30.02F FOG
MARIETTA       CLOUDY    58  56  92 SE8       29.99R
KENNESAW*      CLOUDY    59  56  89 SE6       29.99F FOG
$$

GAZ059>098-102>109-222100-
CENTRAL GEORGIA

CITY           SKY/WX    TMP DP  RH WIND       PRES   REMARKS
AUGUSTA-BUSH   PTSUNNY   71  57  61 SE7       30.02F
AUGUSTA-DANIEL PTSUNNY   70  56  61 E8        30.03F
COLUMBUS       CLOUDY    67  59  75 S8        29.96F
MACON          CLOUDY    68  60  75 S9        30.01F
ROBINS AFB     PTSUNNY   70  59  68 S13       30.00F


CITY           SKY/WX    TMP DP  RH WIND       PRES   REMARKS
MILLEDGEVILLE* CLOUDY    68  59  73 S6        30.02F
$$

GAZ099>101-110>166-222100-
SOUTH GEORGIA

CITY           SKY/WX    TMP DP  RH WIND       PRES   REMARKS
SAVANNAH       PTSUNNY   75  61  61 S20       30.06F
VALDOSTA       FAIR      75  61  61 S16       30.02F
ALMA           FAIR      76  58  53 S10       30.02F
ST SIMONS      FAIR      69  62  78 SE8       30.06F
FT STEWART     PTSUNNY   74  60  60 SE12      30.02F
ALBANY         PTSUNNY   72  61  68 S18G26    30.01F
HUNTER AFB     FAIR      73  61  68 S10       30.04F
MOODY AFB      FAIR      76  60  57 S20G28    30.01F


CITY           SKY/WX    TMP DP  RH WIND       PRES   REMARKS
$$




USA.gov is the U.S. government's official web portal to all federal, state and local government web resources and services.